• în România
  • Lista ţărilor
  • Pe 7 zile
  • Temperatura apei
  • Hartă satelitară
  • Meteo pe hartă
  • Widget-uri
  • user-avatar
    Intrare

    Meteo pe oră la Mayrhofen

    Astăzi, 24 Iulie, Luni

    Timp Temperatura Precipitaţii Vânt Presiune Umiditate
    00:00 +12°C° 0,8 mm 1 m/s 618 mmHg 97%
    01:00 +12°C° 0 mm 1 m/s 618 mmHg 98%
    02:00 +11°C° 1,6 mm 1 m/s 617 mmHg 98%
    03:00 +11°C° 1,6 mm 1 m/s 617 mmHg 98%
    04:00 +11°C° 1,6 mm 1 m/s 616 mmHg 98%
    05:00 +11°C° 1,5 mm 1 m/s 616 mmHg 97%
    06:00 +11°C° 1,5 mm 1 m/s 616 mmHg 96%
    07:00 +12°C° 1,5 mm 1 m/s 615 mmHg 94%
    08:00 +12°C° 1,7 mm 1 m/s 615 mmHg 92%
    09:00 +12°C° 1,7 mm 1 m/s 615 mmHg 90%
    10:00 +12°C° 1,7 mm 1 m/s 615 mmHg 87%
    11:00 +12°C° 2,2 mm 2 m/s 615 mmHg 89%
    12:00 +10°C° 2,2 mm 2 m/s 614 mmHg 90%
    13:00 +10°C° 2,2 mm 2 m/s 614 mmHg 91%
    14:00 +9°C° 2,8 mm 2 m/s 614 mmHg 93%
    15:00 +9°C° 2,8 mm 2 m/s 614 mmHg 95%
    16:00 +8°C° 2,8 mm 2 m/s 614 mmHg 96%
    17:00 +8°C° 1,2 mm 2 m/s 614 mmHg 96%
    18:00 +8°C° 1,2 mm 2 m/s 614 mmHg 96%
    19:00 +8°C° 1,2 mm 2 m/s 614 mmHg 96%
    20:00 +7°C° 0 mm 2 m/s 614 mmHg 96%
    21:00 +6°C° 0 mm 2 m/s 614 mmHg 96%
    22:00 +6°C° 0 mm 2 m/s 613 mmHg 96%
    23:00 +5°C° 0 mm 2 m/s 613 mmHg 96%

    Mâine, 25 Iulie, Marţi

    Timp Temperatura Precipitaţii Vânt Presiune Umiditate
    00:00 +4°C° 0 mm 2 m/s 613 mmHg 96%
    01:00 +4°C° 0 mm 2 m/s 613 mmHg 96%
    02:00 +4°C° 0,1 mm 2 m/s 613 mmHg 96%
    03:00 +4°C° 0,1 mm 2 m/s 612 mmHg 96%
    04:00 +3°C° 0,1 mm 2 m/s 612 mmHg 95%
    05:00 +4°C° 0,1 mm 2 m/s 613 mmHg 93%
    06:00 +5°C° 0,1 mm 2 m/s 613 mmHg 91%
    07:00 +6°C° 0,1 mm 2 m/s 613 mmHg 89%
    08:00 +8°C° 0,2 mm 2 m/s 614 mmHg 82%
    09:00 +9°C° 0,2 mm 2 m/s 614 mmHg 75%
    10:00 +10°C° 0,2 mm 2 m/s 615 mmHg 68%
    11:00 +10°C° 0,7 mm 2 m/s 615 mmHg 70%
    12:00 +12°C° 0,7 mm 2 m/s 614 mmHg 71%
    13:00 +12°C° 0,7 mm 2 m/s 614 mmHg 73%
    14:00 +12°C° 0,8 mm 2 m/s 614 mmHg 72%
    15:00 +12°C° 0,8 mm 2 m/s 614 mmHg 70%
    16:00 +13°C° 0,8 mm 2 m/s 614 mmHg 68%
    17:00 +10°C° 0,6 mm 2 m/s 614 mmHg 73%
    18:00 +9°C° 0,6 mm 2 m/s 614 mmHg 79%
    19:00 +8°C° 0,6 mm 2 m/s 613 mmHg 84%
    20:00 +7°C° 0,2 mm 2 m/s 613 mmHg 86%
    21:00 +6°C° 0,2 mm 2 m/s 613 mmHg 88%
    22:00 +6°C° 0,2 mm 1 m/s 613 mmHg 91%
    23:00 +6°C° 0 mm 1 m/s 612 mmHg 91%

    Poimâine, 26 Iulie, Miercuri

    Timp Temperatura Precipitaţii Vânt Presiune Umiditate
    00:00 +5°C° 0 mm 1 m/s 612 mmHg 91%
    01:00 +5°C° 0 mm 1 m/s 612 mmHg 91%
    02:00 +5°C° 0 mm 1 m/s 612 mmHg 91%
    03:00 +4°C° 0 mm 1 m/s 611 mmHg 90%
    04:00 +4°C° 0 mm 1 m/s 611 mmHg 90%
    05:00 +5°C° 0,5 mm 1 m/s 611 mmHg 89%
    06:00 +6°C° 0,5 mm 1 m/s 612 mmHg 87%
    07:00 +7°C° 0,5 mm 1 m/s 612 mmHg 86%
    08:00 +8°C° 0,5 mm 1 m/s 612 mmHg 82%
    09:00 +9°C° 0,5 mm 1 m/s 613 mmHg 79%
    10:00 +9°C° 0,5 mm 2 m/s 613 mmHg 75%
    11:00 +9°C° 0,8 mm 2 m/s 614 mmHg 75%
    12:00 +10°C° 0,8 mm 2 m/s 614 mmHg 75%
    13:00 +10°C° 0,8 mm 2 m/s 614 mmHg 75%
    14:00 +9°C° 0,9 mm 2 m/s 614 mmHg 77%
    15:00 +9°C° 0,9 mm 2 m/s 614 mmHg 80%
    16:00 +9°C° 0,9 mm 2 m/s 614 mmHg 82%
    17:00 +8°C° 0,5 mm 2 m/s 614 mmHg 84%
    18:00 +8°C° 0,5 mm 2 m/s 614 mmHg 86%
    19:00 +7°C° 0,5 mm 2 m/s 614 mmHg 88%
    20:00 +7°C° 0,5 mm 2 m/s 614 mmHg 90%
    21:00 +6°C° 0,5 mm 2 m/s 614 mmHg 92%
    22:00 +5°C° 0,5 mm 2 m/s 614 mmHg 94%
    23:00 +5°C° 0,5 mm 2 m/s 614 mmHg 93%

    27 Iulie, Joi

    Timp Temperatura Precipitaţii Vânt Presiune Umiditate
    00:00 +5°C° 0,5 mm 2 m/s 614 mmHg 93%
    01:00 +4°C° 0,5 mm 2 m/s 614 mmHg 93%
    02:00 +5°C° 0,3 mm 2 m/s 614 mmHg 93%
    03:00 +5°C° 0,3 mm 2 m/s 614 mmHg 93%
    04:00 +5°C° 0,3 mm 2 m/s 614 mmHg 93%
    05:00 +6°C° 0 mm 2 m/s 615 mmHg 90%
    06:00 +7°C° 0 mm 2 m/s 615 mmHg 87%
    07:00 +8°C° 0 mm 2 m/s 616 mmHg 84%
    08:00 +10°C° 0 mm 2 m/s 617 mmHg 72%
    09:00 +13°C° 0 mm 1 m/s 617 mmHg 59%
    10:00 +15°C° 0 mm 1 m/s 618 mmHg 47%
    11:00 +15°C° 0,1 mm 1 m/s 618 mmHg 50%
    12:00 +15°C° 0,1 mm 1 m/s 618 mmHg 54%
    13:00 +15°C° 0,1 mm 1 m/s 618 mmHg 57%
    14:00 +14°C° 0,2 mm 1 m/s 617 mmHg 61%
    15:00 +14°C° 0,2 mm 1 m/s 617 mmHg 65%
    16:00 +14°C° 0,2 mm 1 m/s 617 mmHg 68%
    17:00 +13°C° 0,1 mm 1 m/s 617 mmHg 72%
    18:00 +12°C° 0,1 mm 2 m/s 617 mmHg 76%
    19:00 +12°C° 0,1 mm 2 m/s 617 mmHg 80%
    20:00 +9°C° 0 mm 2 m/s 617 mmHg 83%
    21:00 +9°C° 0 mm 1 m/s 617 mmHg 86%
    22:00 +7°C° 0 mm 1 m/s 616 mmHg 90%
    23:00 +7°C° 0 mm 1 m/s 616 mmHg 90%

    28 Iulie, Vineri

    Timp Temperatura Precipitaţii Vânt Presiune Umiditate
    00:00 +7°C° 0 mm 1 m/s 616 mmHg 90%
    01:00 +7°C° 0 mm 1 m/s 616 mmHg 90%
    02:00 +6°C° 0 mm 1 m/s 616 mmHg 90%
    03:00 +6°C° 0 mm 1 m/s 616 mmHg 90%
    04:00 +6°C° 0 mm 1 m/s 616 mmHg 89%
    05:00 +8°C° 0 mm 1 m/s 617 mmHg 85%
    06:00 +10°C° 0 mm 1 m/s 618 mmHg 81%
    07:00 +12°C° 0 mm 1 m/s 619 mmHg 77%
    08:00 +14°C° 0 mm 1 m/s 619 mmHg 69%
    09:00 +16°C° 0 mm 1 m/s 620 mmHg 61%
    10:00 +19°C° 0 mm 1 m/s 621 mmHg 54%
    11:00 +19°C° 0,3 mm 1 m/s 621 mmHg 55%
    12:00 +18°C° 0,3 mm 2 m/s 621 mmHg 55%
    13:00 +19°C° 0,3 mm 2 m/s 621 mmHg 56%
    14:00 +18°C° 0,4 mm 2 m/s 621 mmHg 60%
    15:00 +18°C° 0,4 mm 2 m/s 621 mmHg 64%
    16:00 +17°C° 0,4 mm 2 m/s 621 mmHg 67%
    17:00 +16°C° 0,3 mm 2 m/s 621 mmHg 74%
    18:00 +15°C° 0,3 mm 2 m/s 621 mmHg 81%
    19:00 +14°C° 0,3 mm 2 m/s 621 mmHg 88%
    20:00 +13°C° 0,1 mm 2 m/s 621 mmHg 91%
    21:00 +12°C° 0,1 mm 1 m/s 621 mmHg 93%
    22:00 +11°C° 0,1 mm 1 m/s 621 mmHg 96%
    23:00 +10°C° 0 mm 1 m/s 621 mmHg 96%

    29 Iulie, Sâmbătă

    Timp Temperatura Precipitaţii Vânt Presiune Umiditate
    00:00 +10°C° 0 mm 1 m/s 621 mmHg 96%
    01:00 +9°C° 0 mm 1 m/s 620 mmHg 96%
    02:00 +9°C° 0 mm 1 m/s 620 mmHg 96%
    03:00 +8°C° 0 mm 1 m/s 620 mmHg 96%
    04:00 +8°C° 0 mm 1 m/s 619 mmHg 95%
    05:00 +9°C° 0 mm 1 m/s 620 mmHg 91%
    06:00 +10°C° 0 mm 0 m/s 621 mmHg 86%
    07:00 +12°C° 0 mm 0 m/s 622 mmHg 82%
    08:00 +15°C° 0 mm 1 m/s 622 mmHg 74%
    09:00 +18°C° 0 mm 1 m/s 623 mmHg 66%
    10:00 +20°C° 0 mm 1 m/s 624 mmHg 58%
    11:00 +20°C° 0,1 mm 1 m/s 624 mmHg 57%
    12:00 +21°C° 0,1 mm 1 m/s 624 mmHg 55%
    13:00 +21°C° 0,1 mm 1 m/s 624 mmHg 54%
    14:00 +21°C° 0,6 mm 1 m/s 624 mmHg 60%
    15:00 +20°C° 0,6 mm 1 m/s 623 mmHg 65%
    16:00 +19°C° 0,6 mm 1 m/s 623 mmHg 70%
    17:00 +18°C° 1,2 mm 1 m/s 623 mmHg 77%
    18:00 +16°C° 1,2 mm 1 m/s 622 mmHg 85%
    19:00 +15°C° 1,2 mm 1 m/s 622 mmHg 92%
    20:00 +14°C° 1,8 mm 1 m/s 622 mmHg 93%
    21:00 +14°C° 1,8 mm 1 m/s 622 mmHg 95%
    22:00 +13°C° 1,8 mm 1 m/s 622 mmHg 96%
    23:00 +13°C° 1,1 mm 1 m/s 622 mmHg 96%
    Arată mai mult